Time,TemperatureF,DewpointF,PressureIn,WindDirection,WindDirectionDegrees,WindSpeedMPH,WindSpeedGustMPH,Humidity,HourlyPrecipIn,Conditions,Clouds,dailyrainin,SoftwareType,DateUTC
2013-07-17 00:00:00,75.0,71.0,-100.00,SSE,160,0.0,1.0,86,-99.99,,,-99.99,,2013-07-17 05:00:00,
2013-07-17 00:22:00,75.0,71.0,-100.00,SSE,160,0.0,1.0,86,-99.99,,,-99.99,,2013-07-17 05:22:00,
2013-07-17 00:32:00,75.0,71.0,-100.00,SSE,160,0.0,1.0,86,-99.99,,,-99.99,,2013-07-17 05:32:00,
2013-07-17 00:43:00,75.0,71.0,-100.00,SSE,160,0.0,1.0,86,-99.99,,,-99.99,,2013-07-17 05:43:00,
2013-07-17 00:52:00,75.0,71.0,-100.00,SSE,160,0.0,1.0,86,-99.99,,,-99.99,,2013-07-17 05:52:00,
2013-07-17 01:01:00,74.0,70.0,-100.00,West,280,0.0,1.0,88,-99.99,,,-99.99,,2013-07-17 06:01:00,
2013-07-17 01:22:00,74.0,70.0,-100.00,West,280,0.0,1.0,88,-99.99,,,-99.99,,2013-07-17 06:22:00,
2013-07-17 01:33:00,74.0,70.0,-100.00,West,280,0.0,1.0,88,-99.99,,,-99.99,,2013-07-17 06:33:00,
2013-07-17 01:43:00,74.0,70.0,-100.00,West,280,0.0,1.0,88,-99.99,,,-99.99,,2013-07-17 06:43:00,
2013-07-17 01:52:00,74.0,70.0,-100.00,West,280,0.0,1.0,88,-99.99,,,-99.99,,2013-07-17 06:52:00,
2013-07-17 02:00:00,72.0,69.0,-100.00,North,355,0.0,1.0,89,-99.99,,,-99.99,,2013-07-17 07:00:00,
2013-07-17 02:22:00,72.0,69.0,-100.00,North,355,0.0,1.0,89,-99.99,,,-99.99,,2013-07-17 07:22:00,
2013-07-17 02:32:00,72.0,69.0,-100.00,North,355,0.0,1.0,89,-99.99,,,-99.99,,2013-07-17 07:32:00,
2013-07-17 02:42:00,72.0,69.0,-100.00,North,355,0.0,1.0,89,-99.99,,,-99.99,,2013-07-17 07:42:00,
2013-07-17 02:52:00,72.0,69.0,-100.00,North,355,0.0,1.0,89,-99.99,,,-99.99,,2013-07-17 07:52:00,
2013-07-17 03:00:00,72.0,68.0,-100.00,NW,305,1.0,2.0,89,-99.99,,,-99.99,,2013-07-17 08:00:00,
2013-07-17 03:22:00,72.0,68.0,-100.00,NW,305,1.0,2.0,89,-99.99,,,-99.99,,2013-07-17 08:22:00,
2013-07-17 03:32:00,72.0,68.0,-100.00,NW,305,1.0,2.0,89,-99.99,,,-99.99,,2013-07-17 08:32:00,
2013-07-17 03:43:00,72.0,68.0,-100.00,NW,305,1.0,2.0,89,-99.99,,,-99.99,,2013-07-17 08:43:00,
2013-07-17 03:53:00,72.0,68.0,-100.00,NW,305,1.0,2.0,89,-99.99,,,-99.99,,2013-07-17 08:53:00,
2013-07-17 04:00:00,72.0,68.0,-100.00,WNW,290,1.0,3.0,89,-99.99,,,-99.99,,2013-07-17 09:00:00,
2013-07-17 04:22:00,72.0,68.0,-100.00,WNW,290,1.0,3.0,89,-99.99,,,-99.99,,2013-07-17 09:22:00,
2013-07-17 04:32:00,72.0,68.0,-100.00,WNW,290,1.0,3.0,89,-99.99,,,-99.99,,2013-07-17 09:32:00,
2013-07-17 04:43:00,72.0,68.0,-100.00,WNW,290,1.0,3.0,89,-99.99,,,-99.99,,2013-07-17 09:43:00,
2013-07-17 04:52:00,72.0,68.0,-100.00,WNW,290,1.0,3.0,89,-99.99,,,-99.99,,2013-07-17 09:52:00,
2013-07-17 05:01:00,71.0,68.0,-100.00,West,275,1.0,3.0,89,-99.99,,,-99.99,,2013-07-17 10:01:00,
2013-07-17 05:22:00,71.0,68.0,-100.00,West,275,1.0,3.0,89,-99.99,,,-99.99,,2013-07-17 10:22:00,
2013-07-17 05:32:00,71.0,68.0,-100.00,West,275,1.0,3.0,89,-99.99,,,-99.99,,2013-07-17 10:32:00,
2013-07-17 05:43:00,71.0,68.0,-100.00,West,275,1.0,3.0,89,-99.99,,,-99.99,,2013-07-17 10:43:00,
2013-07-17 05:52:00,71.0,68.0,-100.00,West,275,1.0,3.0,89,-99.99,,,-99.99,,2013-07-17 10:52:00,
2013-07-17 06:01:00,71.0,68.0,-100.00,SW,215,0.0,2.0,89,-99.99,,,-99.99,,2013-07-17 11:01:00,
2013-07-17 06:22:00,71.0,68.0,-100.00,SW,215,0.0,2.0,89,-99.99,,,-99.99,,2013-07-17 11:22:00,
2013-07-17 06:32:00,71.0,68.0,-100.00,SW,215,0.0,2.0,89,-99.99,,,-99.99,,2013-07-17 11:32:00,
2013-07-17 06:42:00,71.0,68.0,-100.00,SW,215,0.0,2.0,89,-99.99,,,-99.99,,2013-07-17 11:42:00,
2013-07-17 06:52:00,71.0,68.0,-100.00,SW,215,0.0,2.0,89,-99.99,,,-99.99,,2013-07-17 11:52:00,
2013-07-17 07:00:00,74.0,71.0,-100.00,WSW,255,1.0,6.0,89,-99.99,,,-99.99,,2013-07-17 12:00:00,
2013-07-17 07:22:00,74.0,71.0,-100.00,WSW,255,1.0,6.0,89,-99.99,,,-99.99,,2013-07-17 12:22:00,
2013-07-17 07:32:00,74.0,71.0,-100.00,WSW,255,1.0,6.0,89,-99.99,,,-99.99,,2013-07-17 12:32:00,
2013-07-17 07:43:00,74.0,71.0,-100.00,WSW,255,1.0,6.0,89,-99.99,,,-99.99,,2013-07-17 12:43:00,
2013-07-17 07:53:00,74.0,71.0,-100.00,WSW,255,1.0,6.0,89,-99.99,,,-99.99,,2013-07-17 12:53:00,
2013-07-17 08:01:00,80.0,70.0,-100.00,WSW,245,2.0,6.0,72,-99.99,,,-99.99,,2013-07-17 13:01:00,
2013-07-17 08:22:00,80.0,70.0,-100.00,WSW,245,2.0,6.0,72,-99.99,,,-99.99,,2013-07-17 13:22:00,
2013-07-17 08:32:00,80.0,70.0,-100.00,WSW,245,2.0,6.0,72,-99.99,,,-99.99,,2013-07-17 13:32:00,
2013-07-17 08:43:00,80.0,70.0,-100.00,WSW,245,2.0,6.0,72,-99.99,,,-99.99,,2013-07-17 13:43:00,
2013-07-17 08:53:00,80.0,70.0,-100.00,WSW,245,2.0,6.0,72,-99.99,,,-99.99,,2013-07-17 13:53:00,
2013-07-17 09:00:00,84.0,69.0,-100.00,WNW,295,3.0,8.0,60,-99.99,,,-99.99,,2013-07-17 14:00:00,
2013-07-17 09:22:00,84.0,69.0,-100.00,WNW,295,3.0,8.0,60,-99.99,,,-99.99,,2013-07-17 14:22:00,
2013-07-17 09:32:00,84.0,69.0,-100.00,WNW,295,3.0,8.0,60,-99.99,,,-99.99,,2013-07-17 14:32:00,
2013-07-17 09:43:00,84.0,69.0,-100.00,WNW,295,3.0,8.0,60,-99.99,,,-99.99,,2013-07-17 14:43:00,
2013-07-17 09:52:00,84.0,69.0,-100.00,WNW,295,3.0,8.0,60,-99.99,,,-99.99,,2013-07-17 14:52:00,
2013-07-17 21:01:00,77.0,72.0,-100.00,West,270,0.0,2.0,84,-99.99,,,-99.99,,2013-07-18 02:01:00,
2013-07-17 21:43:00,77.0,72.0,-100.00,West,270,0.0,2.0,84,-99.99,,,-99.99,,2013-07-18 02:43:00,
2013-07-17 21:52:00,77.0,72.0,-100.00,West,270,0.0,2.0,84,-99.99,,,-99.99,,2013-07-18 02:52:00,
2013-07-17 22:00:00,76.0,71.0,-100.00,WNW,290,1.0,2.0,87,-99.99,,,-99.99,,2013-07-18 03:00:00,
2013-07-17 22:22:00,76.0,71.0,-100.00,WNW,290,1.0,2.0,87,-99.99,,,-99.99,,2013-07-18 03:22:00,
2013-07-17 22:32:00,76.0,71.0,-100.00,WNW,290,1.0,2.0,87,-99.99,,,-99.99,,2013-07-18 03:32:00,
2013-07-17 22:43:00,76.0,71.0,-100.00,WNW,290,1.0,2.0,87,-99.99,,,-99.99,,2013-07-18 03:43:00,
2013-07-17 22:52:00,76.0,71.0,-100.00,WNW,290,1.0,2.0,87,-99.99,,,-99.99,,2013-07-18 03:52:00,
2013-07-17 23:01:00,74.0,71.0,-100.00,NW,320,2.0,2.0,88,-99.99,,,-99.99,,2013-07-18 04:01:00,
2013-07-17 23:22:00,74.0,71.0,-100.00,NW,320,2.0,2.0,88,-99.99,,,-99.99,,2013-07-18 04:22:00,
2013-07-17 23:32:00,74.0,71.0,-100.00,NW,320,2.0,2.0,88,-99.99,,,-99.99,,2013-07-18 04:32:00,
2013-07-17 23:43:00,74.0,71.0,-100.00,NW,320,2.0,2.0,88,-99.99,,,-99.99,,2013-07-18 04:43:00,
2013-07-17 23:52:00,74.0,71.0,-100.00,NW,320,2.0,2.0,88,-99.99,,,-99.99,,2013-07-18 04:52:00,